Location: Kott?ru
(16.6209°N, 80.6208°E)
Time: 04:52:59
(UTC+00:00)

Hubble Space Telescope - Pass Details

Date: 04 February 2023
Orbit: 527 x 530 km, 28.5° (Epoch: 27 March)

Event Time Altitude Azimuth Distance (km) Brightness Sun altitude
Exits shadow 23:45:39 56° 305° (NW) 629 0.7 -19.9°
Maximum altitude 23:46:28 83° 25° (NNE) 533 0.6 -19.7°
Drops below altitude 10° 23:50:33 10° 113° (ESE) 1,765 4.6 -18.7°
Sets 23:52:48 0° 114° (ESE) 2,654 5.9 -18.2°
